This is the latest recevied weather packets stored in our database for station/object W4GAP. If no packets are shown the sender has not sent any weather packets the latest 10 day(s).
| Time | Temp. | Humidity | Pressure | Rain* | Wind** | Luminosity | Snow |
|---|---|---|---|---|---|---|---|
| 1777670186 | 18.33° C | 59% | 1009.8 hPa | 0 mm | - | 54 W/m² | - |
| 1777669884 | 18.33° C | 57% | 1009.5 hPa | 0 mm | - | 54 W/m² | - |
| 1777669580 | 18.33° C | 57% | 1009.5 hPa | 0 mm | - | 51 W/m² | - |
| 1777669277 | 18.33° C | 58% | 1009.8 hPa | 0 mm | - | 70 W/m² | - |
| 1777668973 | 18.33° C | 59% | 1010 hPa | 0 mm | - | 73 W/m² | - |
| 1777668671 | 18.33° C | 57% | 1010.3 hPa | 0 mm | - | 64 W/m² | - |
| 1777668368 | 18.33° C | 58% | 1010.6 hPa | 0 mm | - | 75 W/m² | - |
| 1777668063 | 18.33° C | 59% | 1010.5 hPa | 0 mm | - | 68 W/m² | - |
| 1777667760 | 17.78° C | 59% | 1010.2 hPa | 0 mm | - | 50 W/m² | - |
| 1777667458 | 17.78° C | 58% | 1010.6 hPa | 0 mm | - | 65 W/m² | - |
| 1777667155 | 17.78° C | 57% | 1010.7 hPa | 0 mm | - | 58 W/m² | - |
| 1777666851 | 17.78° C | 59% | 1010.7 hPa | 0 mm | - | 55 W/m² | - |
| 1777666548 | 17.78° C | 60% | 1010.5 hPa | 0 mm | - | 59 W/m² | - |
| 1777666245 | 17.78° C | 58% | 1010.6 hPa | 0 mm | - | 52 W/m² | - |
| 1777665942 | 17.78° C | 59% | 1010.5 hPa | 0 mm | - | 49 W/m² | - |
| 1777665639 | 17.78° C | 59% | 1010.5 hPa | 0 mm | - | 49 W/m² | - |
| 1777665337 | 17.78° C | 56% | 1010.7 hPa | 0 mm | - | 58 W/m² | - |
| 1777665032 | 17.78° C | 59% | 1010.7 hPa | 0 mm | - | 46 W/m² | - |
| 1777664728 | 17.78° C | 59% | 1010.5 hPa | 0 mm | - | 55 W/m² | - |
| 1777664424 | 17.78° C | 58% | 1010.5 hPa | 0 mm | - | 56 W/m² | - |
| 1777664121 | 17.78° C | 59% | 1010.3 hPa | 0 mm | - | 58 W/m² | - |
| 1777663820 | 17.78° C | 59% | 1010.7 hPa | 0 mm | - | 55 W/m² | - |
| 1777663516 | 18.33° C | 58% | 1010.5 hPa | 0 mm | - | 95 W/m² | - |
| 1777663214 | 17.78° C | 59% | 1010.6 hPa | 0 mm | - | 70 W/m² | - |
| 1777662911 | 18.33° C | 59% | 1010.8 hPa | 0 mm | - | 69 W/m² | - |
* Rain latest hour (hover to see other rain measurements)
** Current wind speed in m/s (hover to see current wind gust speed)